Total_Precipitation_Accumulation
1.84 2.21 2.54 2.97 3.40 3.92 4.63 5.21 5.57 5.50 5.27 4.90 4.51 4.21 3.73 3.40 3.10 2.76 2.52 2.28 2.02 1.92 2.14 1.97 2.11 2.08 2.00 1.83 1.80 1.89 1.89 1.67 1.93 2.13 1.72 1.29 1.07 0.96 0.84 0.82 0.88 0.81 0.87
1.78 2.10 2.60 2.89 3.21 3.69 4.18 4.58 4.53 4.20 4.06 4.00 3.88 3.61 3.62 3.46 3.27 3.04 2.78 2.36 2.14 1.97 1.81 1.90 1.81 1.79 1.85 1.65 1.55 1.70 1.71 1.49 1.74 1.87 1.85 1.36 1.13 0.94 0.65 0.69 0.71 0.79 0.98
1.40 1.72 2.26 2.56 2.71 3.09 3.38 3.44 3.32 3.11 3.12 3.15 3.07 3.11 3.33 3.38 3.32 3.15 2.88 2.58 2.38 2.21 2.05 1.89 1.73 1.69 1.57 1.55 1.51 1.57 1.60 1.53 1.48 1.53 1.70 1.39 1.11 0.94 0.64 0.56 0.62 0.84 1.05
1.10 1.38 1.72 1.90 2.14 2.30 2.45 2.50 2.55 2.54 2.52 2.54 2.46 2.36 2.41 2.56 2.77 3.00 3.05 3.01 2.79 2.49 2.20 1.99 1.78 1.56 1.41 1.53 1.29 1.36 1.55 1.63 1.40 1.35 1.31 1.26 1.37 1.36 1.03 0.69 0.56 0.78 0.90
1.09 1.23 1.30 1.44 1.58 1.58 1.73 1.81 2.09 2.37 2.43 2.41 2.47 2.36 2.12 2.09 2.14 2.28 2.42 2.43 2.42 2.28 2.00 1.86 1.76 1.51 1.31 1.30 1.31 1.48 1.46 1.44 1.34 1.35 1.32 1.39 1.51 1.39 1.30 1.04 0.88 0.87 0.76
0.83 0.99 1.14 1.20 1.24 1.21 1.37 1.58 1.89 2.24 2.43 2.48 2.43 2.34 2.25 2.21 2.08 2.04 2.03 1.91 1.94 1.93 1.80 1.67 1.62 1.46 1.32 1.31 1.27 1.36 1.41 1.45 1.48 1.46 1.44 1.49 1.45 1.44 1.59 1.40 1.21 1.10 0.89
0.61 0.61 0.75 0.86 0.85 0.88 0.98 1.23 1.46 1.69 1.89 2.03 2.03 1.93 2.04 2.16 2.03 1.88 1.76 1.65 1.55 1.50 1.51 1.57 1.59 1.44 1.37 1.40 1.50 1.47 1.40 1.43 1.51 1.48 1.53 1.56 1.48 1.56 1.71 1.68 1.45 1.33 1.21
0.40 0.37 0.43 0.53 0.63 0.66 0.69 0.82 1.10 1.29 1.48 1.61 1.73 1.82 1.98 2.11 2.07 2.19 1.95 1.75 1.52 1.40 1.45 1.60 1.63 1.52 1.42 1.36 1.54 1.51 1.52 1.58 1.56 1.47 1.67 1.69 1.52 1.67 1.86 1.93 1.92 1.75 1.67
0.28 0.28 0.33 0.37 0.41 0.46 0.53 0.60 0.76 0.98 1.20 1.39 1.56 1.63 1.61 1.64 1.77 1.94 1.91 1.75 1.67 1.51 1.58 1.62 1.72 1.74 1.74 1.69 1.72 1.62 1.66 1.83 1.82 1.75 1.80 1.80 1.70 1.75 1.86 2.01 2.12 2.14 2.05
0.28 0.27 0.28 0.30 0.31 0.33 0.45 0.57 0.64 0.80 1.12 1.44 1.60 1.50 1.47 1.37 1.50 1.57 1.61 1.67 1.64 1.63 1.65 1.63 1.66 1.71 1.75 1.74 1.80 1.78 1.83 1.98 1.98 2.03 2.12 2.05 1.88 1.92 1.95 2.02 2.17 2.33 2.37
0.31 0.30 0.27 0.28 0.32 0.29 0.38 0.57 0.70 0.86 1.15 1.46 1.64 1.61 1.45 1.41 1.49 1.42 1.40 1.52 1.57 1.57 1.60 1.59 1.55 1.51 1.56 1.73 1.87 1.85 1.93 2.00 2.03 2.03 2.01 1.95 1.97 2.03 1.92 1.98 2.07 2.21 2.38
0.25 0.24 0.20 0.24 0.24 0.24 0.36 0.68 0.99 1.34 1.51 1.75 1.97 1.96 1.66 1.49 1.40 1.23 1.20 1.34 1.50 1.54 1.55 1.54 1.50 1.45 1.54 1.76 1.88 1.94 2.13 2.20 2.12 2.04 1.99 1.88 1.95 2.03 1.97 2.00 1.96 2.02 2.27
0.25 0.26 0.20 0.23 0.21 0.22 0.28 0.45 0.60 0.93 1.25 1.55 1.80 1.76 1.51 1.34 1.28 1.23 1.23 1.36 1.47 1.49 1.49 1.52 1.57 1.68 1.79 1.95 2.04 2.10 2.22 2.20 2.11 2.11 2.03 1.90 1.93 1.91 1.98 2.03 2.01 1.96 2.01
0.32 0.29 0.26 0.25 0.24 0.27 0.27 0.37 0.46 0.54 0.73 1.11 1.38 1.39 1.27 1.20 1.19 1.23 1.24 1.24 1.26 1.32 1.38 1.57 1.81 1.97 2.07 2.13 2.18 2.17 2.15 2.11 1.98 1.88 1.78 1.77 1.85 1.92 1.93 1.85 1.85 1.87 1.94
0.32 0.26 0.27 0.36 0.39 0.43 0.40 0.40 0.45 0.49 0.65 1.02 1.22 1.21 1.17 1.15 1.11 1.09 1.17 1.23 1.30 1.35 1.53 1.71 1.83 1.85 1.88 1.94 2.06 2.07 2.03 1.97 1.84 1.70 1.49 1.44 1.64 1.76 1.77 1.63 1.71 1.77 1.81
0.34 0.30 0.28 0.37 0.44 0.47 0.48 0.47 0.48 0.52 0.65 0.90 1.10 1.12 1.08 1.05 1.00 1.03 1.14 1.30 1.40 1.53 1.68 1.72 1.70 1.64 1.40 1.47 1.59 1.65 1.69 1.69 1.64 1.50 1.41 1.38 1.41 1.37 1.35 1.32 1.33 1.41 1.52
0.37 0.30 0.31 0.42 0.55 0.53 0.55 0.59 0.55 0.55 0.68 0.89 1.05 1.14 1.12 1.13 1.10 1.09 1.26 1.44 1.59 1.69 1.73 1.73 1.64 1.55 1.52 1.42 1.29 1.27 1.33 1.44 1.46 1.47 1.52 1.31 1.17 1.27 1.25 1.30 1.25 1.20 1.24
0.44 0.43 0.40 0.46 0.55 0.54 0.57 0.62 0.61 0.63 0.75 0.93 1.12 1.20 1.16 1.20 1.29 1.32 1.41 1.62 1.81 1.88 1.85 1.83 1.76 1.74 1.68 1.56 1.33 1.23 1.20 1.38 1.44 1.45 1.48 1.47 1.40 1.38 1.44 1.46 1.38 1.24 1.20
0.55 0.58 0.61 0.58 0.60 0.62 0.65 0.66 0.71 0.77 0.87 0.94 1.09 1.20 1.27 1.37 1.43 1.48 1.65 1.85 2.00 1.98 1.93 1.95 1.92 1.89 1.89 1.71 1.39 1.25 1.26 1.45 1.50 1.50 1.48 1.46 1.42 1.44 1.30 1.27 1.29 1.28 1.25
0.58 0.59 0.68 0.71 0.73 0.74 0.77 0.83 0.90 1.02 1.16 1.24 1.30 1.48 1.69 1.87 1.95 2.00 2.06 2.09 2.15 2.06 2.02 1.99 1.96 1.91 1.91 1.83 1.39 1.19 1.22 1.43 1.50 1.57 1.55 1.43 1.31 1.28 1.15 1.14 1.27 1.26 1.23
0.54 0.60 0.64 0.72 0.76 0.80 0.93 1.09 1.16 1.26 1.38 1.49 1.57 1.79 2.12 2.30 2.27 2.26 2.21 2.17 2.18 2.18 2.15 2.08 2.06 2.02 1.96 1.89 1.49 1.30 1.34 1.51 1.60 1.60 1.56 1.50 1.36 1.17 1.11 1.05 1.09 1.13 1.12
0.53 0.59 0.62 0.68 0.80 0.92 1.14 1.38 1.46 1.42 1.49 1.68 1.88 2.11 2.37 2.32 2.22 2.37 2.31 2.30 2.36 2.33 2.24 2.18 2.11 2.11 2.06 1.90 1.61 1.38 1.43 1.58 1.70 1.77 1.73 1.63 1.41 1.17 1.06 0.98 0.95 0.90 0.84
0.54 0.59 0.64 0.75 0.86 1.06 1.40 1.64 1.67 1.70 1.73 1.86 2.03 2.14 2.25 2.43 2.57 2.62 2.55 2.47 2.43 2.38 2.22 2.12 2.01 1.94 2.00 2.01 1.59 1.33 1.39 1.48 1.53 1.70 1.73 1.46 1.23 1.08 0.93 0.89 0.87 0.78 0.72
0.56 0.62 0.70 0.86 1.04 1.22 1.51 1.65 1.67 1.70 1.71 1.73 1.75 1.87 2.06 2.22 2.31 2.53 2.60 2.51 2.36 2.30 2.25 2.14 2.00 1.93 1.96 1.96 1.63 1.32 1.30 1.37 1.37 1.45 1.52 1.39 1.21 1.07 0.96 0.90 0.85 0.80 0.81
0.57 0.67 0.78 0.89 1.01 1.17 1.34 1.40 1.52 1.61 1.69 1.66 1.62 1.65 1.69 1.81 1.90 2.02 2.14 2.15 2.17 2.00 1.89 1.78 1.72 1.72 1.77 1.74 1.49 1.31 1.31 1.43 1.49 1.45 1.47 1.48 1.35 1.21 1.10 1.07 1.10 1.10 1.05
0.57 0.68 0.80 0.92 1.01 1.14 1.32 1.38 1.48 1.56 1.62 1.59 1.52 1.54 1.55 1.63 1.70 1.75 1.71 1.57 1.51 1.36 1.22 1.18 1.13 1.15 1.21 1.31 1.16 1.04 1.14 1.29 1.35 1.28 1.31 1.42 1.41 1.33 1.25 1.19 1.19 1.17 1.11